Flight Track Log - Related Links

Times and Time Zones

All times are in EDT time to prevent confusion due to time zone crossing. See the N559LC flight status page for this flight to view local times or setup timezone preferences in your user account.

Time Position Orientation Groundspeed Altitude Reporting Facility
EDT Latitude Longitude Course Direction KTS MPH feet Rate Location/Type
15:26 32.6833 -96.5333 67° East 215 247 2,300  Level Dallas / Fort Worth TRACON
15:27 32.6653 -96.5200 148° Southeast 212 244 3,100 1,129 Climbing Fort Worth Center
15:28 32.7025 -96.4678 50° Northeast 134 154 3,900 1,950 Climbing Fort Worth Center
15:29 32.7794 -96.4422 16° North 197 227 7,000 2,550 Climbing Fort Worth Center
15:30 32.8503 -96.4144 18° North 266 306 9,000 2,000 Climbing Fort Worth Center
15:31 32.9144 -96.3294 48° Northeast 312 359 11,000 1,100 Climbing Fort Worth Center
15:32 32.9728 -96.6795 67° East  Level FlightAware Approximate
15:32 32.9636 -96.2372 58° Northeast 348 400 11,200  Level Fort Worth Center
15:33 33.0272 -96.1225 56° Northeast 369 425 14,400 2,650 Climbing Fort Worth Center
15:34 33.0803 -96.0225 58° Northeast 378 435 16,500 2,182 Climbing Fort Worth Center
15:35 33.1478 -95.8950 58° Northeast 404 465 18,800 2,250 Climbing Fort Worth Center
15:36 33.2050 -95.7897 57° Northeast 413 475 21,000 2,218 Climbing Fort Worth Center
15:37 33.2781 -95.6467 59° Northeast 435 501 23,200 2,050 Climbing Fort Worth Center
15:38 33.3219 -95.5067 69° East 440 506 25,100 1,800 Climbing Fort Worth Center
15:39 33.3656 -95.3564 71° East 458 527 26,800 1,800 Climbing Fort Worth Center
15:40 33.4131 -95.1986 70° East 477 549 28,700 1,850 Climbing Fort Worth Center
15:41 33.4581 -95.0406 71° East 494 568 30,500 1,600 Climbing Fort Worth Center
15:42 33.4992 -94.8975 71° East 494 568 31,900 1,750 Climbing Fort Worth Center
15:43 33.5458 -94.7342 71° East 500 575 34,000 1,900 Climbing Fort Worth Center
15:44 33.5925 -94.5708 71° East 511 588 35,700 1,639 Climbing Fort Worth Center
15:46 33.6975 -94.2247 70° East 525 604 39,000 1,574 Climbing Memphis Center
15:47 33.7647 -94.0728 62° Northeast 515 593 40,500 1,000 Climbing Memphis Center
15:48 33.8292 -93.9428 59° Northeast 508 585 41,000 250 Climbing Memphis Center
15:49 33.9044 -93.7908 59° Northeast 508 585 41,000  Level Memphis Center
15:50 33.9794 -93.6361 60° Northeast 521 600 41,000  Level Memphis Center
15:51 34.0567 -93.4761 60° Northeast 532 612 41,000  Level Memphis Center
15:52 34.1333 -93.3208 59° Northeast 532 612 41,000  Level Memphis Center
15:53 34.2103 -93.1625 60° Northeast 532 612 41,000  Level Memphis Center
15:54 34.2867 -93.0067 59° Northeast 537 618 41,000  Level Memphis Center
15:55 34.3608 -92.8506 60° Northeast 537 618 41,000 50 Level Memphis Center
15:56 34.4389 -92.6892 60° Northeast 537 618 41,100  Climbing Memphis Center
15:57 34.5169 -92.5350 58° Northeast 537 618 41,000 -50 Descending Memphis Center
15:58 34.5906 -92.3781 60° Northeast 537 618 41,000  Level Memphis Center
15:59 34.6700 -92.2258 58° Northeast 537 618 41,000  Level Memphis Center
16:00 34.7700 -92.1017 46° Northeast 523 602 41,000  Level Memphis Center
16:01 34.8758 -91.9897 41° Northeast 494 568 41,000  Level Memphis Center
16:02 34.9961 -91.8706 39° Northeast 502 578 41,000  Level Memphis Center
16:03 35.1081 -91.7583 39° Northeast 512 589 41,000  Level Memphis Center
16:04 35.2156 -91.6481 40° Northeast 510 587 41,000  Level Memphis Center
16:05 35.3253 -91.5378 39° Northeast 505 581 41,000  Level Memphis Center
16:06 35.4347 -91.4297 39° Northeast 500 575 41,000  Level Memphis Center
16:07 35.5439 -91.3189 40° Northeast 505 581 41,000  Level Memphis Center
16:08 35.6533 -91.2053 40° Northeast 511 588 41,000  Level Memphis Center
16:09 35.7539 -91.0964 41° Northeast 494 568 41,000  Level Memphis Center
16:10 35.8611 -90.9844 40° Northeast 494 568 41,000  Level Memphis Center
16:11 35.9719 -90.8750 39° Northeast 499 574 41,000  Level Memphis Center
16:12 36.0786 -90.7628 40° Northeast 504 580 41,000  Level Memphis Center
16:13 36.1875 -90.6528 39° Northeast 504 580 41,000  Level Memphis Center
16:15 36.3831 -90.4442 41° Northeast 515 593 41,000  Level Kansas City Center
16:16 36.4925 -90.3303 40° Northeast 515 593 41,000  Level Kansas City Center
16:17 36.6044 -90.2139 40° Northeast 516 594 41,000  Level Kansas City Center
16:18 36.7144 -90.0975 40° Northeast 517 595 41,000  Level Kansas City Center
16:19 36.8250 -89.9803 40° Northeast 517 595 41,000  Level Kansas City Center
16:20 36.9350 -89.8619 41° Northeast 517 595 41,000  Level Kansas City Center
16:21 37.0667 -89.7214 40° Northeast 517 595 41,000  Level Kansas City Center
16:22 37.1753 -89.6039 41° Northeast 514 592 41,000  Level Kansas City Center
16:23 37.2811 -89.4892 41° Northeast 507 583 41,000  Level Kansas City Center
16:24 37.3889 -89.3731 41° Northeast 507 583 41,000  Level Kansas City Center
16:25 37.4964 -89.2556 41° Northeast 509 586 41,000  Level Kansas City Center
16:26 37.6044 -89.1356 41° Northeast 513 590 41,000  Level Kansas City Center
16:27 37.7122 -89.0175 41° Northeast 514 592 41,000  Level Kansas City Center
16:28 37.8308 -88.8861 41° Northeast 511 588 41,000  Level Kansas City Center
16:29 37.9375 -88.7694 41° Northeast 510 587 41,000  Level Kansas City Center
16:30 38.0514 -88.6447 41° Northeast 514 592 41,000  Level Kansas City Center
16:31 38.1589 -88.5222 42° Northeast 515 593 41,000  Level Kansas City Center
16:32 38.2669 -88.4014 41° Northeast 515 593 41,000  Level Kansas City Center
16:33 38.3764 -88.2789 41° Northeast 518 596 41,000  Level Kansas City Center
16:34 38.5092 -88.1306 41° Northeast 521 600 41,000  Level Kansas City Center
16:35 38.6186 -88.0058 42° Northeast 523 602 41,000  Level Kansas City Center
16:36 38.7275 -87.8825 41° Northeast 520 598 41,000  Level Kansas City Center
16:37 38.8336 -87.7592 42° Northeast 516 594 41,000  Level Indianapolis Center
16:38 38.9406 -87.6378 41° Northeast 511 588 41,000  Level Indianapolis Center
16:39 39.0464 -87.5139 42° Northeast 510 587 41,000 -97 Level Indianapolis Center
16:40 39.1608 -87.3825 42° Northeast 511 588 40,800 -576 Descending Indianapolis Center
16:41 39.2650 -87.2606 42° Northeast 504 580 39,800 -1,056 Descending Indianapolis Center
16:42 39.3847 -87.1214 42° Northeast 495 570 38,600 -1,065 Descending Indianapolis Center
16:43 39.4878 -86.9986 43° Northeast 498 573 37,600 -1,016 Descending Indianapolis Center
16:45 39.5922 -86.8767 42° Northeast 502 578 36,500 -1,113 Descending Indianapolis Center
16:46 39.6942 -86.7561 42° Northeast 492 566 35,300 -1,161 Descending Indianapolis Center
16:47 39.7639 -86.5986 60° Northeast 509 586 34,100 -1,113 Descending Indianapolis Center
16:48 39.8217 -86.4281 66° East 508 585 33,000 -532 Descending Indianapolis Center
16:49 39.9044 -86.2864 53° Northeast 480 552 33,000 -161 Level Indianapolis Center
16:51 40.1058 -86.0778 38° Northeast 458 527 32,500 -637 Descending Indianapolis Center
16:52 40.2086 -85.9747 37° Northeast 461 531 31,100 -1,424 Descending Chicago Center
16:53 40.3128 -85.8703 37° Northeast 466 536 29,700 -1,200 Descending Chicago Center
16:54 40.4158 -85.7669 37° Northeast 463 533 28,600 -1,113 Descending Chicago Center
16:55 40.5158 -85.6642 38° Northeast 456 525 27,400 -1,161 Descending Chicago Center
16:56 40.6308 -85.5478 38° Northeast 445 512 26,200 -1,065 Descending Chicago Center
16:57 40.7161 -85.4583 38° Northeast 441 507 25,200 -1,016 Descending Chicago Center
16:58 40.8108 -85.3614 38° Northeast 433 498 24,100 -1,210 Descending Chicago Center
16:59 40.9206 -85.2447 39° Northeast 426 490 22,700 -1,141 Descending Chicago Center
17:01 41.0639 -85.0975 38° Northeast 415 478 21,000 -823 Descending Cleveland Center
17:01 41.0989 -85.0597 39° Northeast 411 473 21,000  Level Chicago Center
17:02 41.1861 -84.9650 39° Northeast 409 471 21,000  Level Chicago Center
17:03 41.2744 -84.8697 39° Northeast 412 474 21,000  Level Chicago Center
17:04 41.3800 -84.7558 39° Northeast 412 474 21,000 -532 Level Chicago Center
17:05 41.4681 -84.6611 39° Northeast 411 473 19,900 -1,133 Descending Chicago Center
17:06 41.5053 -84.6206 39° Northeast 410 472 19,300 -1,416 Descending Cleveland Center
17:07 41.5897 -84.5286 39° Northeast 405 466 17,800 -1,537 Descending Cleveland Center
17:08 41.6661 -84.4278 45° Northeast 394 453 16,200 -1,613 Descending Cleveland Center
17:09 41.7244 -84.3058 57° Northeast 388 447 14,600 -1,659 Descending Cleveland Center
17:10 41.7814 -84.1533 63° Northeast 384 442 12,800 -1,191 Descending Cleveland Center
17:11 41.8397 -84.0200 60° Northeast 368 423 12,000 -410 Descending Cleveland Center
17:12 41.8861 -83.9331 54° Northeast 366 421 12,000  Level Cleveland Center
17:13 41.9494 -83.8331 50° Northeast 361 415 12,000  Level Cleveland Center
17:14 42.0269 -83.7419 41° Northeast 356 410 12,000  Level Cleveland Center
17:15 42.0981 -83.6586 41° Northeast 350 403 12,000  Level Cleveland Center
17:16 42.1689 -83.5781 40° Northeast 255 293 12,000  Level Cleveland Center
17:17 42.2139 -83.5325 37° Northeast 263 303 12,000 -661 Level Cleveland Center
17:18 42.2756 -83.4906 27° Northeast 243 280 10,800 -1,263 Descending Cleveland Center
17:18 42.3264 -83.4481 32° Northeast 240 276 9,600 -1,293 Descending Cleveland Center
17:19 42.3839 -83.4028 30° Northeast 236 272 8,300 -1,328 Descending Cleveland Center
17:20 42.3839 -83.3128 90° East 255 293 6,900 -1,488 Descending Cleveland Center
17:21 42.3397 -83.2519 134° Southeast 231 266 5,300 -1,856 Descending Cleveland Center
17:23 42.2739 -83.2967 207° Southwest 193 222 2,600 -2,051 Descending Cleveland Center

Login

Don't have an account? Register now (free) for customized features, flight alerts, and more!